sat.trackr.live / text

‹ back to catalog

ONEWEB-0495

NORAD 54115 · 2022-138C

PAYLOAD ACTIVE UNKNOWN

§ Identity

Operator
Country
UK
Launch date
2022-10-22
Launch site
SRILR
Launch vehicle
Mass (kg)
RCS (m²)

Purposes: comms

External: N2YO · Heavens-Above · Gunter

§ Orbital elements

Epoch: 2026-05-25T03:57:58.209984Z

Period
109.11 min
Inclination
87.9151°
Eccentricity
0.0001445
Mean motion
13.19726532 rev/d
Perigee alt
1,184.7 km
Apogee alt
1,186.9 km
Semi-major
7,563.9 km
B*
2.7216e-4
RAAN
309.5605°
Arg perigee
73.6920°
Mean anomaly
286.4372°
Rev number
17,378

§ Raw data

ONEWEB-04951 54115U 22138C   26145.16525706  .00000122  00000+0  27216-3 0  99972 54115  87.9151 309.5605 0001445  73.6920 286.4372 13.19726532173785

JSON: /api/v1/satellites/54115 · /tle

For live sub-satellite position, see the globe view (requires WebGL).

§ Visibility from observer

Set your observer location to see the next 7 days of passes ≥ 10°. The values pass through the URL so the page stays shareable.

No JS? Fill the form by hand. The geolocation button needs JavaScript.